Voltar ao catálogo

STARLINK-5142

AtivoComunicaçõesVLEO
NORAD 53984·PAYLOAD·🇺🇸 United States

Lançado Oct 5, 2022 de Vandenberg Space Force Base

Loading…

Próximas Passagens (próximas 24 horas)

TLE

AtualizadoSource: CelesTrak SupGP

Época: Sep 15, 2026, 02:25 UTC

1 53984C 22125W   26258.10118056 -.00021300  00000+0 -13359-2 0  2584
2 53984  53.1573  83.3436 0001318  86.2222 324.5975 15.08842866    11

Acompanhe STARLINK-5142 em tempo real com AllMySat

Download on the App Store